| time (UTC) | temp F | wind direction | speed knots | gust knots | rain 1hr in | rain 24hr in | rain mn in | humidity % | barometer mb |
| 20260505194544 | 80 | 313 | 5.2 | 10.4 | 0.00 | 0.00 | 0.00 | 32 | 1010.1 |
| 20260505193042 | 79 | 317 | 6.1 | 11.3 | 0.00 | 0.00 | 0.00 | 32 | 1010.1 |
| 20260505191545 | 79 | 348 | 3.5 | 9.6 | 0.00 | 0.00 | 0.00 | 35 | 1010.2 |
| 20260505190040 | 78 | 27 | 7.8 | 10.4 | 0.00 | 0.00 | 0.00 | 34 | 1010.2 |
| 20260505184536 | 76 | 39 | 7.0 | 13.0 | 0.00 | 0.00 | 0.00 | 35 | 1010.3 |
| 20260505183050 | 76 | 56 | 6.1 | 12.2 | 0.00 | 0.00 | 0.00 | 38 | 1010.4 |
| 20260505181532 | 75 | 350 | 7.0 | 13.0 | 0.00 | 0.00 | 0.00 | 37 | 1010.4 |
| 20260505180033 | 74 | 331 | 7.0 | 12.2 | 0.00 | 0.00 | 0.00 | 38 | 1010.5 |
| 20260505174528 | 74 | 336 | 6.1 | 14.8 | 0.00 | 0.00 | 0.00 | 38 | 1010.5 |
| 20260505173027 | 73 | 12 | 6.1 | 10.4 | 0.00 | 0.00 | 0.00 | 39 | 1010.5 |
| 20260505171525 | 72 | 302 | 4.3 | 9.6 | 0.00 | 0.00 | 0.00 | 41 | 1010.4 |
| 20260505170026 | 72 | 33 | 4.3 | 9.6 | 0.00 | 0.00 | 0.00 | 42 | 1010.5 |
| 20260505164524 | 71 | 21 | 6.1 | 9.6 | 0.00 | 0.00 | 0.00 | 43 | 1010.5 |
| 20260505163024 | 70 | 39 | 3.5 | 7.8 | 0.00 | 0.00 | 0.00 | 43 | 1010.4 |
| 20260505161521 | 69 | 40 | 1.7 | 6.1 | 0.00 | 0.00 | 0.00 | 46 | 1010.3 |
| 20260505153018 | 65 | 12 | 3.5 | 7.8 | 0.00 | 0.00 | 0.00 | 51 | 1010.2 |
| 20260505151516 | 64 | 15 | 4.3 | 7.8 | 0.00 | 0.00 | 0.00 | 54 | 1010.1 |
| 20260505124608 | 56 | 340 | 0.0 | 0.0 | 0.00 | 0.00 | 0.00 | 67 | 1008.4 |
| 20260505123057 | 57 | 341 | 0.0 | 0.9 | 0.00 | 0.00 | 0.00 | 65 | 1008.2 |
| 20260505121559 | 57 | 307 | 0.9 | 2.6 | 0.00 | 0.00 | 0.00 | 66 | 1008.2 |
| 20260505120056 | 56 | 256 | 0.0 | 0.9 | 0.00 | 0.00 | 0.00 | 69 | 1007.9 |
| 20260505114559 | 56 | 322 | 0.0 | 1.7 | 0.00 | 0.00 | 0.00 | 72 | 1007.7 |
| 20260505113101 | 56 | 258 | 0.0 | 0.9 | 0.00 | 0.00 | 0.00 | 71 | 1007.6 |
| 20260505111546 | 58 | 225 | 0.9 | 2.6 | 0.00 | 0.00 | 0.00 | 67 | 1007.4 |
| 20260505101545 | 60 | 255 | 0.0 | 0.9 | 0.00 | 0.00 | 0.00 | 63 | 1006.5 |
| 20260505100037 | 61 | 196 | 0.0 | 0.9 | 0.00 | 0.00 | 0.00 | 61 | 1006.3 |
| 20260505094536 | 63 | 269 | 0.9 | 2.6 | 0.00 | 0.00 | 0.00 | 58 | 1006.2 |
| 20260505093031 | 64 | 229 | 1.7 | 1.7 | 0.00 | 0.00 | 0.00 | 56 | 1006.1 |
| 20260505091526 | 65 | 133 | 0.0 | 0.9 | 0.00 | 0.00 | 0.00 | 54 | 1006.1 |
| 20260505090024 | 68 | 65 | 1.7 | 5.2 | 0.00 | 0.00 | 0.00 | 49 | 1006.0 |
| 20260505084524 | 72 | 267 | 0.9 | 6.1 | 0.00 | 0.00 | 0.00 | 39 | 1005.7 |
| 20260505083023 | 71 | 272 | 5.2 | 10.4 | 0.00 | 0.00 | 0.00 | 41 | 1005.7 |
| 20260505081521 | 71 | 271 | 6.1 | 12.2 | 0.00 | 0.00 | 0.00 | 40 | 1005.6 |
| 20260505080020 | 72 | 248 | 7.0 | 13.0 | 0.00 | 0.00 | 0.00 | 39 | 1005.6 |
| 20260505074518 | 71 | 276 | 5.2 | 11.3 | 0.00 | 0.00 | 0.00 | 40 | 1005.6 |
| 20260505073014 | 67 | 309 | 0.9 | 5.2 | 0.00 | 0.00 | 0.00 | 46 | 1005.6 |
| 20260505071527 | 65 | 157 | 1.7 | 4.3 | 0.00 | 0.00 | 0.00 | 54 | 1005.4 |
| 20260505070009 | 68 | 276 | 2.6 | 5.2 | 0.00 | 0.00 | 0.00 | 45 | 1005.0 |
| 20260505064510 | 65 | 244 | 1.7 | 3.5 | 0.00 | 0.00 | 0.00 | 48 | 1005.0 |
| 20260505063009 | 68 | 249 | 0.9 | 2.6 | 0.00 | 0.00 | 0.00 | 42 | 1004.8 |
| 20260505061508 | 70 | 17 | 0.9 | 6.1 | 0.00 | 0.00 | 0.00 | 40 | 1004.8 |
| 20260505060032 | 69 | 239 | 0.0 | 1.7 | 0.00 | 0.00 | 0.00 | 40 | 1004.5 |
| 20260505054511 | 69 | 238 | 1.7 | 3.5 | 0.00 | 0.00 | 0.00 | 39 | 1004.5 |
| 20260505053006 | 70 | 237 | 0.0 | 1.7 | 0.00 | 0.00 | 0.00 | 44 | 1004.6 |
| 20260505051515 | 70 | 14 | 4.3 | 12.2 | 0.00 | 0.00 | 0.00 | 46 | 1004.7 |
| 20260505041507 | 72 | 191 | 0.9 | 1.7 | 0.00 | 0.00 | 0.00 | 38 | 1003.9 |
| 20260505040004 | 71 | 180 | 0.0 | 3.5 | 0.00 | 0.00 | 0.00 | 45 | 1003.8 |
| 20260505034504 | 73 | 198 | 0.0 | 0.9 | 0.00 | 0.00 | 0.00 | 40 | 1003.7 |
| 20260505033003 | 73 | 206 | 1.7 | 2.6 | 0.00 | 0.00 | 0.00 | 39 | 1003.5 |
| 20260505031503 | 74 | 200 | 1.7 | 2.6 | 0.00 | 0.00 | 0.00 | 38 | 1003.5 |
| 20260505030002 | 76 | 235 | 2.6 | 3.5 | 0.00 | 0.00 | 0.00 | 34 | 1003.3 |
| 20260505024504 | 79 | 220 | 1.7 | 1.7 | 0.00 | 0.00 | 0.00 | 31 | 1003.2 |
| 20260505023003 | 82 | 331 | 0.9 | 3.5 | 0.00 | 0.00 | 0.00 | 26 | 1003.2 |
| 20260505021559 | 84 | 132 | 1.7 | 2.6 | 0.00 | 0.00 | 0.00 | 24 | 1003.2 |
| 20260505020059 | 86 | 124 | 0.9 | 1.7 | 0.00 | 0.00 | 0.00 | 23 | 1003.3 |
| 20260505014558 | 86 | 88 | 1.7 | 4.3 | 0.00 | 0.00 | 0.00 | 24 | 1003.4 |
| 20260505013125 | 87 | 102 | 2.6 | 4.3 | 0.00 | 0.00 | 0.00 | 21 | 1003.5 |
| 20260505011607 | 87 | 121 | 1.7 | 4.3 | 0.00 | 0.00 | 0.00 | 21 | 1003.6 |
| 20260505010109 | 87 | 128 | 1.7 | 2.6 | 0.00 | 0.00 | 0.00 | 22 | 1003.7 |
| 20260505004553 | 87 | 84 | 2.6 | 6.1 | 0.00 | 0.00 | 0.00 | 25 | 1003.8 |
| 20260505003056 | 88 | 109 | 3.5 | 5.2 | 0.00 | 0.00 | 0.00 | 22 | 1003.8 |
| 20260505001553 | 87 | 52 | 4.3 | 7.0 | 0.00 | 0.00 | 0.00 | 22 | 1003.9 |
| 20260505000100 | 87 | 90 | 4.3 | 8.7 | 0.00 | 0.00 | 0.00 | 29 | 1003.8 |
| 20260504234552 | 88 | 117 | 4.3 | 10.4 | 0.00 | 0.00 | 0.00 | 23 | 1003.7 |
| 20260504233058 | 88 | 109 | 2.6 | 6.1 | 0.00 | 0.00 | 0.00 | 25 | 1003.8 |
| 20260504231550 | 87 | 62 | 4.3 | 7.0 | 0.00 | 0.00 | 0.00 | 23 | 1003.9 |
| 20260504230056 | 87 | 61 | 4.3 | 7.8 | 0.00 | 0.00 | 0.00 | 25 | 1004.0 |
| 20260504224547 | 88 | 346 | 4.3 | 10.4 | 0.00 | 0.00 | 0.00 | 20 | 1004.1 |
| 20260504223054 | 87 | 350 | 5.2 | 9.6 | 0.00 | 0.00 | 0.00 | 22 | 1004.3 |
| 20260504221542 | 87 | 103 | 3.5 | 10.4 | 0.00 | 0.00 | 0.00 | 23 | 1004.5 |
| 20260504220044 | 86 | 58 | 2.6 | 11.3 | 0.00 | 0.00 | 0.00 | 23 | 1004.7 |
| 20260504214546 | 86 | 76 | 5.2 | 7.0 | 0.00 | 0.00 | 0.00 | 27 | 1004.9 |
| 20260504213041 | 86 | 27 | 2.6 | 6.1 | 0.00 | 0.00 | 0.00 | 23 | 1005.2 |
| 20260504211537 | 86 | 59 | 1.7 | 6.1 | 0.00 | 0.00 | 0.00 | 26 | 1005.4 |
| 20260504210034 | 85 | 159 | 3.5 | 8.7 | 0.00 | 0.00 | 0.00 | 23 | 1005.6 |
| 20260504204532 | 85 | 88 | 2.6 | 8.7 | 0.00 | 0.00 | 0.00 | 25 | 1005.8 |
| 20260504203032 | 85 | 150 | 2.6 | 7.8 | 0.00 | 0.00 | 0.00 | 25 | 1006.0 |
| 20260504201528 | 84 | 80 | 2.6 | 7.0 | 0.00 | 0.00 | 0.00 | 23 | 1006.2 |
| 20260504200027 | 84 | 130 | 2.6 | 8.7 | 0.00 | 0.00 | 0.00 | 24 | 1006.3 |